Tracking 27107 objects as of 21-Mar-2023
HD Live streaming from Space Station
objects crossing your sky now

CZ-4 DEB

Track CZ-4 DEB now!
10-day predictions


NORAD ID: 32473
Int'l Code: 2007-042C
Perigee: 654.4 km
Apogee: 804.1 km
Inclination: 98.0 °
Period: 99.2 minutes
Semi major axis: 7100 km
RCS: 0.0013 m2 (small)
Launch date: September 19, 2007
Source: People's Republic of China (PRC)
Launch site: Taiyaun Space Center, China (TSC)

Note: This is SATELLITE DEBRIS
Your satellite tracking list
Your tracking list is empty




NASA's NSSDC Master Catalog

Two Line Element Set (TLE):
1 32473U 07042C   23078.87746348  .00003539  00000-0  84204-3 0  9990
2 32473  98.0409 119.4201 0105450 333.2116  26.3656 14.51085753806745
Source of the keplerian elements: AFSPC